Home > Weather > Serekunda > Past weeks

Flag for Gambia Past Weather in Serekunda, Gambia — Yesterday and Last 2 Weeks

Now
70 °F

Clear.


Feels Like: 70 °F
Forecast: N/A
Wind: 8 mph from West

Location: Banjul / Yundum

Current Time: May 26, 2016 at 10:30:42 PM

Latest Report: May 26, 2016 at 10:00 PM


Visibility: 10 mi

Pressure: 29.89 "Hg

Humidity: 83%

Dew Point: 64 °F

Location of SerekundaLocation

Past Weather in Serekunda — Graph

°F

Serekunda Temperature Yesterday

Maximum temperature yesterday: 81 °F (at 3:00 PM)
Minimum temperature yesterday: 66 °F (at 7:00 AM)
Average temperature yesterday: 71 °F

High & Low Weather Summary for the Past Weeks

 TemperatureHumidityPressure
High91 °F (May 12, 2:00 PM)100% (May 25, 7:00 AM)30.01 "Hg (May 25, 7:00 AM)
Low66 °F (May 17, 6:00 AM)32% (May 12, 2:00 PM)29.80 "Hg (May 13, 3:00 PM)
Average75 °F72%29.90 "Hg
* Reported May 11 9:00 PM — May 26 9:00 PM, Serekunda, Weather by CustomWeather, © 2016

Note: Actual official high and low records may vary slightly from our data, if they occured in-between our weather recording intervals... More about our weather records

Advertising

Serekunda Weather History for the Previous 24 Hours

Scroll right to see more
 ConditionsComfort  
Time TempWeatherWind HumidityBarometerVisibility
9:00 PM
Thu, May 26
72 °FClear.10 mph78%29.86 "Hg10 mi
8:00 PM72 °FClear.12 mph78%29.86 "Hg10 mi
7:00 PM75 °FSunny.8 mph69%29.83 "Hg10 mi
6:00 PM79 °FSunny.10 mph61%29.86 "Hg10 mi
5:00 PM81 °FSunny.10 mph51%29.83 "Hg10 mi
4:00 PM84 °FSunny.8 mph55%29.86 "Hg10 mi
3:00 PM84 °FSunny.8 mph51%29.86 "Hg10 mi
2:00 PM82 °FSunny.3 mph58%29.89 "Hg10 mi
1:00 PM79 °FSunny.12 mph61%29.92 "Hg10 mi
12:00 PM79 °FSunny.7 mph61%29.92 "Hg10 mi
11:00 AM77 °FSunny.6 mph65%29.92 "Hg10 mi
10:00 AM75 °FPartly sunny.8 mph69%29.92 "HgN/A
9:00 AM70 °FBroken clouds.10 mph83%29.92 "HgN/A
8:00 AM68 °FScattered clouds.8 mph88%29.89 "HgN/A
7:00 AM68 °FPartly sunny.3 mph88%29.89 "HgN/A
6:00 AM66 °FPassing clouds.12 mph94%29.86 "HgN/A
5:00 AM68 °FPassing clouds.10 mph88%29.86 "HgN/A
4:00 AM68 °FPassing clouds.8 mph88%29.86 "HgN/A
3:00 AM68 °FPassing clouds.8 mph88%29.89 "HgN/A
2:00 AM66 °FPassing clouds.10 mph94%29.89 "HgN/A
1:00 AM68 °FMild.15 mph88%29.92 "HgN/A
12:00 AM68 °FClear.13 mph88%29.92 "Hg10 mi
11:00 PM
Wed, May 25
68 °FClear.10 mph83%29.92 "Hg10 mi
10:00 PM68 °FClear.12 mph88%29.89 "Hg10 mi
Weather by CustomWeather, © 2016

See weather overviewHow to use our weather pages